| time (UTC) | temp C | wind direction | speed KPH | gust KPH | rain 1hr cm | rain 24hr cm | rain mn cm | humidity % | barometer mb |
| 20260507014557 | -17 | 44 | 11.3 | 17.7 | 0.00 | 0.00 | 0.00 | 1020.6 | |
| 20260507013059 | -17 | 67 | 11.3 | 22.5 | 0.00 | 0.00 | 0.00 | 1020.6 | |
| 20260507011557 | -17 | 49 | 12.9 | 20.9 | 0.00 | 0.00 | 0.00 | 1020.7 | |
| 20260507010051 | -17 | 61 | 12.9 | 20.9 | 0.00 | 0.00 | 0.00 | 1020.7 | |
| 20260507004550 | -17 | 55 | 12.9 | 20.9 | 0.00 | 0.00 | 0.00 | 1020.6 | |
| 20260507003049 | -17 | 42 | 14.5 | 22.5 | 0.00 | 0.00 | 0.00 | 1020.6 | |
| 20260507001549 | -17 | 43 | 12.9 | 20.9 | 0.00 | 0.00 | 0.00 | 1020.5 | |
| 20260507000049 | -17 | 71 | 9.7 | 24.1 | 0.00 | 0.00 | 0.00 | 1020.6 | |
| 20260506234557 | -17 | 32 | 11.3 | 19.3 | 0.00 | 0.00 | 0.00 | 1020.7 | |
| 20260506233052 | -17 | 44 | 14.5 | 24.1 | 0.00 | 0.00 | 0.00 | 1020.8 | |
| 20260506231554 | -17 | 55 | 12.9 | 22.5 | 0.00 | 0.00 | 0.00 | 1020.9 | |
| 20260506230048 | -17 | 43 | 12.9 | 25.7 | 0.00 | 0.00 | 0.00 | 1020.9 | |
| 20260506224548 | -17 | 50 | 14.5 | 25.7 | 0.00 | 0.00 | 0.00 | 1021.0 | |
| 20260506223047 | -17 | 64 | 12.9 | 25.7 | 0.00 | 0.00 | 0.00 | 1020.9 | |
| 20260506221547 | -17 | 42 | 12.9 | 24.1 | 0.00 | 0.00 | 0.00 | 1021.0 | |
| 20260506220051 | -17 | 34 | 12.9 | 19.3 | 0.00 | 0.00 | 0.00 | 1021.1 | |
| 20260506214548 | -17 | 50 | 12.9 | 22.5 | 0.00 | 0.00 | 0.00 | 1021.0 | |
| 20260506213047 | -17 | 17 | 9.7 | 22.5 | 0.00 | 0.00 | 0.00 | 1021.1 | |
| 20260506211541 | -17 | 55 | 11.3 | 19.3 | 0.00 | 0.00 | 0.00 | 1021.1 | |
| 20260506210037 | -17 | 56 | 14.5 | 22.5 | 0.00 | 0.00 | 0.00 | 1021.1 | |
| 20260506204535 | -17 | 38 | 14.5 | 22.5 | 0.00 | 0.00 | 0.00 | 1021.1 | |
| 20260506203037 | -17 | 60 | 12.9 | 25.7 | 0.00 | 0.00 | 0.00 | 1021.0 | |
| 20260506201524 | -17 | 59 | 12.9 | 20.9 | 0.00 | 0.00 | 0.00 | 1021.0 | |
| 20260506200019 | -17 | 44 | 14.5 | 22.5 | 0.00 | 0.00 | 0.00 | 1020.9 | |
| 20260506194517 | -17 | 57 | 14.5 | 24.1 | 0.00 | 0.00 | 0.00 | 1020.8 | |
| 20260506193013 | -17 | 40 | 8.0 | 22.5 | 0.00 | 0.00 | 0.00 | 1020.8 | |
| 20260506191506 | -17 | 53 | 14.5 | 22.5 | 0.00 | 0.00 | 0.00 | 1020.7 | |
| 20260506190003 | -17 | 36 | 14.5 | 22.5 | 0.00 | 0.00 | 0.00 | 1020.6 | |
| 20260506184558 | -17 | 42 | 9.7 | 20.9 | 0.00 | 0.00 | 0.00 | 1020.7 | |
| 20260506183056 | -17 | 63 | 14.5 | 22.5 | 0.00 | 0.00 | 0.00 | 1020.6 | |
| 20260506181552 | -17 | 42 | 9.7 | 19.3 | 0.00 | 0.00 | 0.00 | 1020.6 | |
| 20260506180048 | -17 | 44 | 14.5 | 24.1 | 0.00 | 0.00 | 0.00 | 1020.5 | |
| 20260506174543 | -17 | 38 | 11.3 | 22.5 | 0.00 | 0.00 | 0.00 | 1020.3 | |
| 20260506173104 | -17 | 67 | 14.5 | 20.9 | 0.00 | 0.00 | 0.00 | 1020.3 | |
| 20260506171534 | -17 | 52 | 17.7 | 24.1 | 0.00 | 0.00 | 0.00 | 1020.2 | |
| 20260506170031 | -17 | 55 | 16.1 | 29.0 | 0.00 | 0.00 | 0.00 | 1020.3 | |
| 20260506164526 | -17 | 48 | 11.3 | 20.9 | 0.00 | 0.00 | 0.00 | 1020.4 | |
| 20260506163030 | -17 | 41 | 16.1 | 24.1 | 0.00 | 0.00 | 0.00 | 1020.3 | |
| 20260506161518 | -17 | 56 | 9.7 | 19.3 | 0.00 | 0.00 | 0.00 | 1020.2 | |
| 20260506160016 | -17 | 52 | 9.7 | 17.7 | 0.00 | 0.00 | 0.00 | 1020.0 | |
| 20260506154511 | -17 | 52 | 8.0 | 17.7 | 0.00 | 0.00 | 0.00 | 1020.1 | |
| 20260506153009 | -17 | 45 | 8.0 | 16.1 | 0.00 | 0.00 | 0.00 | 1020.1 | |
| 20260506151505 | -17 | 56 | 8.0 | 17.7 | 0.00 | 0.00 | 0.00 | 1020.0 | |
| 20260506144557 | -17 | 56 | 4.8 | 12.9 | 0.00 | 0.00 | 0.00 | 1019.9 | |
| 20260506143052 | -17 | 57 | 6.4 | 9.7 | 0.00 | 0.00 | 0.00 | 1020.0 | |
| 20260506141548 | -17 | 27 | 4.8 | 8.0 | 0.00 | 0.00 | 0.00 | 1019.8 | |
| 20260506140044 | -17 | 28 | 4.8 | 9.7 | 0.00 | 0.00 | 0.00 | 1019.5 | |
| 20260506134540 | -17 | 60 | 3.2 | 8.0 | 0.00 | 0.00 | 0.00 | 1019.6 | |
| 20260506133039 | -17 | 64 | 4.8 | 9.7 | 0.00 | 0.00 | 0.00 | 1019.6 | |
| 20260506131544 | -17 | 53 | 6.4 | 14.5 | 0.00 | 0.00 | 0.00 | 1019.5 | |
| 20260506130029 | -17 | 66 | 8.0 | 16.1 | 0.00 | 0.00 | 0.00 | 1019.5 | |
| 20260506124523 | -17 | 44 | 4.8 | 11.3 | 0.00 | 0.00 | 0.00 | 1019.2 | |
| 20260506123021 | -17 | 42 | 8.0 | 17.7 | 0.00 | 0.00 | 0.00 | 1019.1 | |
| 20260506121516 | -17 | 50 | 11.3 | 19.3 | 0.00 | 0.00 | 0.00 | 1019.0 | |
| 20260506120018 | -17 | 27 | 9.7 | 16.1 | 0.00 | 0.00 | 0.00 | 1018.9 | |
| 20260506114508 | -17 | 62 | 8.0 | 16.1 | 0.00 | 0.00 | 0.00 | 1018.8 | |
| 20260506113006 | -17 | 72 | 8.0 | 16.1 | 0.00 | 0.00 | 0.00 | 1018.7 | |
| 20260506111600 | -17 | 59 | 6.4 | 17.7 | 0.00 | 0.00 | 0.00 | 1018.7 | |
| 20260506110101 | -17 | 29 | 6.4 | 14.5 | 0.00 | 0.00 | 0.00 | 1018.6 | |
| 20260506104556 | -17 | 57 | 8.0 | 16.1 | 0.00 | 0.00 | 0.00 | 1018.5 | |
| 20260506103056 | -17 | 46 | 8.0 | 14.5 | 0.00 | 0.00 | 0.00 | 1018.4 | |
| 20260506101556 | -17 | 42 | 6.4 | 17.7 | 0.00 | 0.00 | 0.00 | 1018.3 | |
| 20260506100100 | -17 | 36 | 4.8 | 14.5 | 0.00 | 0.00 | 0.00 | 1018.2 | |
| 20260506094537 | -17 | 59 | 8.0 | 16.1 | 0.00 | 0.00 | 0.00 | 1018.1 | |
| 20260506093041 | -17 | 59 | 6.4 | 11.3 | 0.00 | 0.00 | 0.00 | 1018.0 | |
| 20260506091534 | -17 | 42 | 6.4 | 14.5 | 0.00 | 0.00 | 0.00 | 1017.9 | |
| 20260506090027 | -17 | 58 | 6.4 | 14.5 | 0.00 | 0.00 | 0.00 | 1017.9 | |
| 20260506084520 | -17 | 55 | 8.0 | 12.9 | 0.00 | 0.00 | 0.00 | 1018.0 | |
| 20260506083019 | -17 | 47 | 6.4 | 14.5 | 0.00 | 0.00 | 0.00 | 1017.8 | |
| 20260506081514 | -17 | 336 | 3.2 | 4.8 | 0.00 | 0.00 | 0.00 | 1017.6 | |
| 20260506073001 | -17 | 48 | 1.6 | 9.7 | 0.00 | 0.00 | 0.00 | 1017.3 | |
| 20260506071600 | -17 | 46 | 4.8 | 14.5 | 0.00 | 0.00 | 0.00 | 1017.2 | |
| 20260506061547 | -17 | 49 | 4.8 | 9.7 | 0.00 | 0.00 | 0.00 | 1016.7 | |
| 20260506044638 | -17 | 30 | 0.0 | 6.4 | 0.00 | 0.00 | 0.00 | 1016.4 | |
| 20260506043046 | -17 | 65 | 1.6 | 8.0 | 0.00 | 0.00 | 0.00 | 1016.3 | |
| 20260506041557 | -17 | 12 | 1.6 | 9.7 | 0.00 | 0.00 | 0.00 | 1016.1 | |
| 20260506040044 | -17 | 355 | 1.6 | 6.4 | 0.00 | 0.00 | 0.00 | 1016.0 | |
| 20260506034619 | -17 | 302 | 0.0 | 3.2 | 0.00 | 0.00 | 0.00 | 1015.7 | |
| 20260506033044 | -17 | 301 | 0.0 | 6.4 | 0.00 | 0.00 | 0.00 | 1015.5 | |
| 20260506031544 | -17 | 289 | 0.0 | 4.8 | 0.00 | 0.00 | 0.00 | 1015.3 | |
| 20260506030043 | -17 | 292 | 0.0 | 3.2 | 0.00 | 0.00 | 0.00 | 1015.2 | |
| 20260506024543 | -17 | 328 | 3.2 | 4.8 | 0.00 | 0.00 | 0.00 | 1015.3 | |
| 20260506023102 | -17 | 306 | 3.2 | 12.9 | 0.00 | 0.00 | 0.00 | 1015.2 | |
| 20260506021542 | -17 | 343 | 3.2 | 8.0 | 0.00 | 0.00 | 0.00 | 1015.1 | |
| 20260506020046 | -17 | 5 | 3.2 | 8.0 | 0.00 | 0.00 | 0.00 | 1015.1 |